Weather Roundup
Issued by NWS

Home | Current Version | Previous Version | Text Only | Print | Product List | Glossary On
Versions: 1 2 3 4 5 6 7 8 9 10 11 12 13 14 15 16 17 18 19 20 21 22 23 24 25 26 27 28 29 30 31 32 33 34 35 36 37 38 39 40 41 42 43 44 45 46 47 48 49 50
000
NZUS93 KARX 180110
HRRWXR

CURRENT HOURLY OBSERVATIONS ACROSS
MUCH OF THE UPPER MISSISSIPPI VALLEY
NATIONAL WEATHER SERVICE LA CROSSE WI
800 PM CDT MON JUN 17 2019


...SOUTHEAST MINNESOTA...


CITY           SKY/WX    TMP DP  RH WIND       PRES   REMARKS
ROCHESTER      FAIR      67  62  84 NW3       29.99S
ROCHESTER/MAYO FAIR      65  63  91 CALM      29.99S
WINONA         MOCLDY    70  64  83 NW3       29.97F
AUSTIN         FAIR      68  61  77 CALM      29.98F
ALBERT LEA     FAIR      66  63  88 CALM      29.98S
DODGE CENTER   MOCLDY    66  57  72 SW3       29.99R
PRESTON        LGT RAIN  66  63  89 CALM      29.99F
OWATONNA       NOT AVBL
FARIBAULT      NOT AVBL
$$

...ELSEWHERE IN MINNESOTA...


CITY           SKY/WX    TMP DP  RH WIND       PRES   REMARKS
MINNEAPOLIS    MOCLDY    70  53  54 NW5       29.96F
INTNL FALLS    CLOUDY    60  55  83 NE7       29.96R
DULUTH         FAIR      57  48  72 SE5       29.97R
RED WING       FAIR      68  64  88 E3        29.96S
REDWOOD FALLS    N/A    N/A N/A N/A MISG      30.00R
MANKATO        CLOUDY    67  54  63 NW7       29.99S
WORTHINGTON    CLOUDY    69  55  60 NE7       30.02R
FAIRMONT       CLOUDY    68  61  78 CALM      30.00R
$$

...SOUTHWEST WISCONSIN...


CITY           SKY/WX    TMP DP  RH WIND       PRES   REMARKS
LA CROSSE      MOCLDY    73  62  68 CALM      29.96F
PRAIRIE DU CHI FAIR      70  59  69 CALM      29.97F
BOSCOBEL       FAIR      71  61  70 CALM      29.98S
LONE ROCK      FAIR      70  61  73 S3        29.97F
PLATTEVILLE    FAIR      68  64  86 SE6       29.99F
FORT MC COY    FAIR      70  61  73 CALM      29.98S
CAMP DOUGLAS   MOCLDY    72  61  68 S6        29.97S
MAUSTON-NEW LI FAIR      70  62  75 CALM      29.97S
VIROQUA        FAIR      68  63  85 CALM      30.00S
WIS DELLS      FAIR      71  59  64 CALM      29.99R
$$

...ELSEWHERE IN WISCONSIN...


CITY           SKY/WX    TMP DP  RH WIND       PRES   REMARKS
MILWAUKEE      MOCLDY    59  50  72 E3        30.00R
MADISON        MOCLDY    72  60  66 CALM      29.97S
GREEN BAY      FAIR      68  56  65 NE7       29.99R
EAU CLAIRE     CLOUDY    67  60  78 SW5       29.97S
BLACK RVR FLS  FAIR      68  61  79 CALM      29.98S
MEDFORD        CLOUDY    65  58  78 W6        29.98S
WAUSAU         MOCLDY    69  57  65 S6        29.95S
WIS RAPIDS     FAIR      70  60  70 S3        29.98S
MARSHFIELD     CLOUDY    70  59  68 W6        29.96S
RICE LAKE      FAIR      67  62  83 S7        29.98S
$$

...NORTHEAST IOWA...


CITY           SKY/WX    TMP DP  RH WIND       PRES   REMARKS
WATERLOO       FAIR      73  64  73 NW8       29.96S
DUBUQUE        FAIR      67  59  75 SE7       29.99S
DECORAH        FAIR      70  63  78 CALM      29.97F
MASON CITY     CLOUDY    67  64  90 CALM      29.99S
CHARLES CITY   FAIR      70  64  83 CALM      29.98F
OELWEIN        MOCLDY    73  63  68 E5        29.98S
$$

...ELSEWHERE IN IOWA...


CITY           SKY/WX    TMP DP  RH WIND       PRES   REMARKS
DES MOINES     CLOUDY    72  61  68 N6        29.96S
IOWA CITY      FAIR      70  61  73 SE6       29.98S
FORT DODGE     CLOUDY    65  64  97 E3        29.99F
MARSHALLTOWN   CLOUDY    71  66  84 N7        29.96S
CEDAR RAPIDS   FAIR      70  62  76 SE6       29.96S
$$

...NORTHERN ILLINOIS...


CITY           SKY/WX    TMP DP  RH WIND       PRES   REMARKS
CHICAGO-OHARE  MOCLDY    62  55  77 NE8       29.99S
CHICAGO-MIDWAY MOCLDY    63  55  75 NE7       29.99S
MOLINE         CLOUDY    68  59  73 E6        29.99R
ROCKFORD       CLOUDY    70  61  73 CALM      29.99S
PEORIA         CLOUDY    68  60  75 N3        29.97F
$$

NOTE: "FAIR" INDICATES FEW OR NO CLOUDS BELOW 12,000 FEET WITH NO
SIGNIFICANT WEATHER AND/OR OBSTRUCTIONS TO VISIBILITY. WIND
SPEEDS ARE IN MILES-PER-HOUR.




USA.gov is the U.S. government's official web portal to all federal, state and local government web resources and services.